FW9626 Weather Reports


time (UTC)temp
C
wind
direction
speed
KPH
gust
KPH
rain 1hr
cm
rain 24hr
cm
rain mn
cm
humidity
%
barometer
mb
20260507084555 11 317 1.6 6.4 0.00 0.00 0.00 42 1018.4
20260507083047 11 9 1.6 9.7 0.00 0.00 0.00 43 1018.3
20260507081553 11 296 1.6 6.4 0.00 0.00 0.00 42 1018.4
20260507080045 11 322 0.0 4.8 0.00 0.00 0.00 41 1018.5
20260507074555 11 0 0.0 1.6 0.00 0.00 0.00 40 1018.5
20260507073042 11 0 0.0 1.6 0.00 0.00 0.00 39 1018.6
20260507071545 12 287 0.0 3.2 0.00 0.00 0.00 39 1018.5
20260507070046 12 0 0.0 1.6 0.00 0.00 0.00 37 1018.6
20260507064548 13 0 0.0 4.8 0.00 0.00 0.00 35 1018.4
20260507063045 14 0 0.0 9.7 0.00 0.00 0.00 35 1018.3
20260507061545 15 0 0.0 3.2 0.00 0.00 0.00 34 1018.3
20260507060057 15 0 0.0 3.2 0.00 0.00 0.00 34 1018.1
20260507054545 15 0 0.0 1.6 0.00 0.00 0.00 33 1018.0
20260507053046 16 0 0.0 6.4 0.00 0.00 0.00 33 1018.0
20260507051547 16 181 0.0 6.4 0.00 0.00 0.00 33 1017.9
20260507050045 16 158 1.6 12.9 0.00 0.00 0.00 33 1017.8
20260507044601 16 195 1.6 9.7 0.00 0.00 0.00 33 1017.7
20260507043100 16 0 0.0 6.4 0.00 0.00 0.00 32 1017.6
20260507041549 16 0 0.0 8.0 0.00 0.00 0.00 31 1017.4
20260507040046 16 0 0.0 4.8 0.00 0.00 0.00 31 1017.2
20260507034546 17 163 0.0 8.0 0.00 0.00 0.00 30 1017.0
20260507033048 17 0 0.0 1.6 0.00 0.00 0.00 29 1016.7
20260507031549 18 0 0.0 1.6 0.00 0.00 0.00 28 1016.5
20260507030049 18 186 1.6 6.4 0.00 0.00 0.00 28 1016.3
20260507024554 19 0 0.0 8.0 0.00 0.00 0.00 27 1016.0
20260507023104 20 188 4.8 16.1 0.00 0.00 0.00 26 1015.9
20260507021551 20 214 4.8 16.1 0.00 0.00 0.00 25 1015.7
20260507020059 21 187 8.0 19.3 0.00 0.00 0.00 25 1015.6
20260507014547 21 181 8.0 19.3 0.00 0.00 0.00 24 1015.4
20260507013047 21 266 8.0 16.1 0.00 0.00 0.00 24 1015.3
20260507011547 22 173 8.0 24.1 0.00 0.00 0.00 24 1015.1
20260507010047 22 171 6.4 22.5 0.00 0.00 0.00 23 1015.2
20260507004544 22 169 8.0 24.1 0.00 0.00 0.00 23 1015.2
20260507003047 23 158 9.7 24.1 0.00 0.00 0.00 22 1015.1
20260507001609 23 209 9.7 22.5 0.00 0.00 0.00 22 1014.9
20260507000048 23 166 9.7 22.5 0.00 0.00 0.00 22 1014.9
20260506234551 24 184 8.0 22.5 0.00 0.00 0.00 21 1014.8
20260506233045 24 175 8.0 22.5 0.00 0.00 0.00 21 1014.9
20260506231544 25 134 6.4 17.7 0.00 0.00 0.00 20 1014.9
20260506230054 25 189 9.7 22.5 0.00 0.00 0.00 20 1015.1
20260506224543 25 250 8.0 17.7 0.00 0.00 0.00 19 1015.1
20260506223045 25 174 6.4 14.5 0.00 0.00 0.00 20 1015.1
20260506221603 25 163 9.7 19.3 0.00 0.00 0.00 19 1015.4
20260506220046 25 157 4.8 19.3 0.00 0.00 0.00 20 1015.6
20260506214544 25 216 6.4 19.3 0.00 0.00 0.00 19 1015.8
20260506213049 25 178 8.0 24.1 0.00 0.00 0.00 19 1016.0
20260506211600 26 34 6.4 14.5 0.00 0.00 0.00 18 1016.1
20260506210054 25 131 6.4 14.5 0.00 0.00 0.00 19 1016.1
20260506204547 25 159 4.8 17.7 0.00 0.00 0.00 19 1016.3
20260506203045 25 135 9.7 24.1 0.00 0.00 0.00 19 1016.4
20260506201545 25 161 4.8 12.9 0.00 0.00 0.00 19 1016.4
20260506200042 25 182 3.2 17.7 0.00 0.00 0.00 20 1016.6
20260506194544 23 84 4.8 16.1 0.00 0.00 0.00 21 1016.7
20260506193045 23 134 4.8 22.5 0.00 0.00 0.00 21 1017.0
20260506191541 23 186 4.8 16.1 0.00 0.00 0.00 21 1016.9
20260506190049 22 88 8.0 22.5 0.00 0.00 0.00 22 1017.1
20260506184549 22 186 3.2 14.5 0.00 0.00 0.00 23 1017.3
20260506183044 22 179 3.2 12.9 0.00 0.00 0.00 23 1017.5
20260506181553 22 220 4.8 16.1 0.00 0.00 0.00 23 1017.6
20260506180050 21 172 1.6 16.1 0.00 0.00 0.00 24 1017.7
20260506174546 20 132 4.8 12.9 0.00 0.00 0.00 24 1017.7
20260506173058 20 160 4.8 14.5 0.00 0.00 0.00 25 1017.8
20260506171550 20 336 6.4 16.1 0.00 0.00 0.00 24 1017.8
20260506170052 20 231 3.2 11.3 0.00 0.00 0.00 25 1017.8
20260506164558 20 192 3.2 8.0 0.00 0.00 0.00 26 1017.7
20260506163101 18 55 3.2 9.7 0.00 0.00 0.00 27 1017.6
20260506161550 17 176 1.6 9.7 0.00 0.00 0.00 29 1017.7
20260506160056 17 168 3.2 6.4 0.00 0.00 0.00 29 1017.6
20260506154549 16 0 3.2 12.9 0.00 0.00 0.00 31 1017.6
20260506153048 15 88 0.0 6.4 0.00 0.00 0.00 34 1017.6
20260506151541 14 24 3.2 12.9 0.00 0.00 0.00 36 1017.6
20260506150101 13 31 4.8 8.0 0.00 0.00 0.00 37 1017.6
20260506144543 13 61 1.6 6.4 0.00 0.00 0.00 38 1017.6
20260506143045 12 59 1.6 6.4 0.00 0.00 0.00 41 1017.5
20260506141546 10 0 0.0 6.4 0.00 0.00 0.00 45 1017.5
20260506140049 9 314 1.6 6.4 0.00 0.00 0.00 48 1017.5
20260506134545 7 0 0.0 8.0 0.00 0.00 0.00 51 1017.4
20260506133059 7 317 1.6 12.9 0.00 0.00 0.00 53 1017.3
20260506131545 6 315 1.6 9.7 0.00 0.00 0.00 55 1017.1
20260506130048 5 331 1.6 6.4 0.00 0.00 0.00 57 1016.5
20260506124544 5 327 3.2 11.3 0.00 0.00 0.00 57 1016.4
20260506123049 5 0 1.6 8.0 0.00 0.00 0.00 57 1016.3
20260506121553 5 0 1.6 8.0 0.00 0.00 0.00 57 1016.2
20260506120058 5 288 1.6 11.3 0.00 0.00 0.00 57 1016.2
20260506114547 5 315 0.0 6.4 0.00 0.00 0.00 57 1016.0
20260506113045 5 0 0.0 3.2 0.00 0.00 0.00 57 1015.9
20260506111548 5 0 0.0 4.8 0.00 0.00 0.00 57 1015.8
20260506110100 5 0 0.0 3.2 0.00 0.00 0.00 55 1016.0
20260506104557 5 0 0.0 4.8 0.00 0.00 0.00 55 1015.9
20260506103047 6 335 0.0 4.8 0.00 0.00 0.00 54 1015.8
20260506101549 6 0 1.6 12.9 0.00 0.00 0.00 53 1015.7
20260506100056 6 0 0.0 4.8 0.00 0.00 0.00 54 1015.7
20260506094550 6 0 0.0 4.8 0.00 0.00 0.00 54 1015.7
20260506093047 6 308 0.0 3.2 0.00 0.00 0.00 54 1015.7
20260506091545 6 0 0.0 3.2 0.00 0.00 0.00 54 1015.5
20260506090043 6 0 0.0 3.2 0.00 0.00 0.00 53 1015.5